星链-36933(STARLINK-36933)

导读

STARLINK-36933(NORAD编号69196)是美国SpaceX公司星链(Starlink)星座中的一颗低轨通信卫星,星链是全球规模最大、商业化最成功的卫星互联网项目,截至2026年一季度已拥有超9600颗卫星,为164个国家和地区超1030万用户提供服务。该卫星运行于近地轨道,主要为偏远地区、移动场景提供宽带互联网接入服务,也支持星链直连手机业务。作为SpaceX星链组网的一部分,它依托SpaceX可复用火箭技术低成本发射,助力星链不断拓展全球覆盖与网络容量,推动卫星互联网商业化发展,当前在轨正常运行,是星链全球通信网络的组成单元。

基本信息
目录编号:
69196
目录名称:
STARLINK-36933
国际标识:
2026-114Q
轨道中心:
EARTH
卫星名称:
星链-36933
卫星全名:
星链-36933(STARLINK-36933)
卫星状态:
在轨 (已飞行18 天)
发射日期:
2026-05-25 UTC
国别 :
美国 (US)
星等 :
--
轨道信息
数据来源 国际轨道数据
星历时间: 2026-06-12T14:09:51+0800
16小时前
查看轨道信息
半长轴: 6705.958km
偏心率: 0.0001287
轨道倾角: 53.158°
近地点辐角 77.788°
升交点赤经 226.850°
平近点角 282.329°
近地点: 326.957km
远地点: 328.685km
周期: 91.086分钟
每日圈数: 15.809262
详细信息
固有亮度:
5
最大亮度:
2.5
卫星平台:
Starlink V1.0
覆盖范围:
全球
运营商:
太空探索技术公司
运营商所在国:
美国
制造商(研发单位):
太空探索技术公司
制造商所在国:
美国
使用方式:
暂无
卫星简介
Starlink 计划是 SpaceX 推出的全球卫星互联网项目,通过发射低轨道卫星,为全球尤其是偏远地区提供高速、低延迟的互联网服务。自 2019 年起,Starlink 已部署数千颗卫星,旨在缩小全球数字鸿沟,推动互联网普及。该项目还为军事、航空等行业提供通信支持,带来广泛经济效益。
2D轨道图
3D轨道图
轨道高度分析图
轨道倾角分析图
轨道综合分析图
查看轨道综合分析图